This is the latest recevied weather packets stored in our database for station/object SR9NCI. If no packets are shown the sender has not sent any weather packets the latest 1 day(s).
| Time | Temp. | Humidity | Pressure | Rain* | Wind** | Luminosity | Snow |
|---|---|---|---|---|---|---|---|
| 1777952498 | 17.22° C | - | 0 hPa | - | 2.24 m/s, 97° | - | - |
| 1777952256 | 17.78° C | - | 0 hPa | - | 1.79 m/s, 124° | - | - |
| 1777952015 | 17.22° C | - | 0 hPa | - | 0.89 m/s, 111° | - | - |
| 1777951772 | 17.22° C | - | 0 hPa | - | 1.34 m/s, 111° | - | - |
| 1777951530 | 17.22° C | - | 0 hPa | - | 1.34 m/s, 111° | - | - |
| 1777951289 | 17.22° C | - | 0 hPa | - | 1.79 m/s, 111° | - | - |
| 1777951048 | 16.67° C | - | 0 hPa | - | 2.24 m/s, 102° | - | - |
| 1777950800 | 17.22° C | - | 0 hPa | - | 1.34 m/s, 111° | - | - |
| 1777950556 | 16.67° C | - | 0 hPa | - | 0.89 m/s, 90° | - | - |
| 1777950316 | 16.67° C | - | 0 hPa | - | 1.34 m/s, 90° | - | - |
| 1777950075 | 17.22° C | - | 0 hPa | - | 2.24 m/s, 97° | - | - |
| 1777949833 | 17.22° C | - | 0 hPa | - | 2.24 m/s, 111° | - | - |
| 1777949591 | 17.22° C | - | 0 hPa | - | 2.68 m/s, 104° | - | - |
| 1777949349 | 17.22° C | - | 0 hPa | - | 2.24 m/s, 86° | - | - |
| 1777949108 | 17.22° C | - | 0 hPa | - | 2.24 m/s, 101° | - | - |
| 1777948867 | 16.67° C | - | 0 hPa | - | 2.24 m/s, 111° | - | - |
| 1777948624 | 16.67° C | - | 0 hPa | - | 0.45 m/s, 111° | - | - |
| 1777948376 | 16.67° C | - | 0 hPa | - | 0 m/s | - | - |
| 1777948134 | 16.67° C | - | 0 hPa | - | 0 m/s | - | - |
| 1777947893 | 16.67° C | - | 0 hPa | - | 0.45 m/s, 111° | - | - |
| 1777947409 | 17.22° C | - | 0 hPa | - | 1.34 m/s, 129° | - | - |
| 1777947168 | 17.78° C | - | 0 hPa | - | 1.79 m/s, 125° | - | - |
| 1777946926 | 17.78° C | - | 0 hPa | - | 1.34 m/s, 111° | - | - |
| 1777946685 | 17.78° C | - | 0 hPa | - | 1.79 m/s, 120° | - | - |
| 1777946443 | 17.78° C | - | 0 hPa | - | 2.68 m/s, 121° | - | - |
* Rain since midnight (hover to see other rain measurements)
** Current wind speed in m/s (hover to see current wind gust speed)